Wind_Speed
99 100 101 101 102 103 104 106 107 107 108 108 107 106 106 105 105 105 105 105 105 105 105 105 105 105 104 104 104 103 103 103 102 101 100 100 98 97 96 95 94 93 92 91 90 89 88 88 87 87 86 86 86 85 85 85 85 85 85 85 85 85 84 84 84 84 83 83 83 83 83 83 83 83 83 83 83 83 83 83 83 83 83 83 83 83
100 101 101 102 102 103 105 106 108 108 108 108 107 106 105 105 105 105 105 104 104 104 104 104 103 103 103 103 102 102 101 101 100 100 99 98 97 96 95 94 93 92 91 90 89 88 88 87 87 86 86 86 86 86 86 86 86 86 86 86 86 85 85 85 85 84 84 84 84 84 84 84 84 84 84 84 84 84 85 85 85 85 85 85 85 84
101 101 102 102 103 104 105 106 107 108 108 108 107 106 105 105 104 104 104 103 103 103 102 102 102 102 102 101 101 100 99 99 98 98 97 96 96 95 94 93 92 91 90 89 88 88 87 87 86 86 86 86 86 87 87 87 87 87 87 86 86 86 86 85 85 85 85 85 85 85 86 86 86 86 86 86 86 86 86 87 87 87 87 87 87 86
102 102 102 103 103 104 104 105 106 107 107 106 106 105 105 104 104 103 103 103 102 102 101 101 101 101 100 100 99 98 98 97 97 96 95 95 94 93 93 92 91 90 89 89 88 87 87 86 86 86 86 87 87 87 87 87 87 87 87 87 87 86 86 86 86 86 86 86 86 86 87 87 87 88 88 88 88 88 89 89 89 89 89 89 89 89
102 102 102 102 103 103 104 104 104 105 105 105 105 105 104 104 103 103 102 101 101 101 100 100 99 99 99 98 97 97 96 95 95 94 93 93 92 91 91 90 89 89 88 88 87 87 86 86 86 86 87 87 87 88 88 88 88 88 87 87 87 87 87 86 87 87 87 87 87 88 88 89 89 90 90 90 91 91 91 92 92 92 92 92 92 92
102 102 102 102 102 102 103 103 103 103 104 104 104 103 103 102 102 101 101 100 100 99 99 98 98 97 97 96 96 95 94 94 93 92 92 91 90 90 89 89 88 88 87 87 87 86 86 86 87 87 87 88 88 88 88 88 88 88 87 87 87 87 87 87 88 88 88 89 89 90 90 91 91 92 93 93 94 94 94 95 95 95 95 95 95 95
101 101 101 101 101 101 101 101 101 102 102 102 102 102 101 101 100 100 99 99 98 97 97 97 96 96 95 95 94 93 93 92 91 90 90 89 89 88 88 87 87 86 86 86 86 87 87 87 88 88 88 89 89 89 89 88 88 88 88 88 88 88 88 89 89 89 90 90 91 92 92 93 94 95 95 96 96 97 98 98 98 98 98 98 98 97
100 100 100 100 100 100 100 100 100 100 100 100 100 100 100 99 99 98 97 97 96 95 95 95 95 94 94 93 93 92 91 90 89 88 88 87 87 86 86 86 86 86 86 86 87 87 88 88 88 89 89 89 89 89 89 89 88 88 88 89 89 89 89 90 90 91 92 92 93 94 95 96 96 97 98 99 99 100 100 100 100 100 100 100 100 99
98 99 99 99 99 99 99 99 99 98 98 98 98 98 97 97 96 96 95 95 94 94 93 93 93 93 93 92 91 90 89 88 87 86 86 85 85 85 85 85 85 86 86 87 87 88 88 89 89 89 89 89 89 89 89 89 89 89 89 89 90 90 91 91 92 93 94 95 96 97 97 98 99 100 101 101 102 102 102 102 102 102 102 102 101 101
97 97 97 97 97 97 97 97 97 96 96 95 95 95 95 94 94 94 93 93 92 92 91 91 91 91 91 90 88 87 86 85 85 84 84 84 85 85 85 86 86 87 87 88 88 89 89 89 89 89 89 89 89 89 89 89 89 90 90 90 91 92 92 93 94 95 96 97 98 99 100 101 101 102 103 103 103 104 104 104 103 103 103 102 102 101
95 95 95 95 95 95 95 95 95 94 93 93 93 92 92 92 91 91 92 91 91 90 90 89 89 89 88 87 86 85 84 84 83 83 84 84 85 86 86 87 87 88 88 89 89 89 89 89 89 90 90 90 90 90 90 90 90 90 91 92 93 94 95 96 97 98 99 100 101 102 102 103 104 104 104 105 105 105 104 104 104 103 103 103 102 101
93 93 93 93 93 93 93 93 92 91 91 90 90 90 90 89 89 89 89 90 89 89 88 87 86 86 85 85 84 84 83 83 83 84 84 85 86 87 87 88 88 89 89 90 90 90 90 90 90 90 90 90 90 90 90 91 91 92 93 94 95 96 97 98 99 100 101 102 103 104 104 105 105 105 105 105 105 105 104 104 103 103 102 102 101 101
91 91 91 91 91 91 90 90 89 89 88 88 88 88 88 88 87 87 87 87 86 86 85 85 84 84 83 83 83 83 83 83 84 85 86 87 88 88 88 89 89 89 90 90 91 91 91 91 91 91 91 91 91 91 92 92 93 94 95 96 97 98 99 100 101 102 103 104 104 105 105 105 105 105 105 105 104 104 103 103 102 102 101 100 100 99
88 88 88 88 88 88 87 87 87 87 86 86 86 86 86 85 85 84 84 84 83 83 82 82 83 83 83 83 83 84 84 84 85 86 87 88 89 89 89 90 90 91 91 92 92 92 92 92 92 92 92 93 93 93 94 94 95 96 97 98 99 100 101 102 103 104 104 104 105 105 105 104 104 104 103 103 102 102 101 101 100 99 99 98 97 97
86 85 85 85 85 85 85 84 84 84 84 84 83 83 83 82 82 81 81 81 81 81 81 82 83 84 85 85 85 84 85 85 86 87 88 90 90 90 90 91 91 92 92 92 93 93 93 93 93 94 94 95 95 95 96 97 97 98 99 100 101 102 103 103 104 104 104 104 104 104 103 103 102 102 101 100 100 99 99 98 97 97 96 95 95 94
82 82 82 82 82 82 82 82 82 82 81 81 80 80 79 79 79 79 79 80 81 81 82 83 84 85 86 86 86 85 85 86 87 88 89 91 91 91 90 91 92 93 93 93 94 94 94 95 95 96 96 97 97 98 98 99 100 100 101 102 102 103 103 103 103 103 103 102 102 101 101 100 99 99 98 97 97 96 95 95 94 94 93 92 92 91
79 79 79 79 79 79 79 79 79 78 78 77 77 77 77 77 78 79 80 81 82 82 83 84 85 87 88 88 87 86 85 86 87 89 90 91 92 91 91 91 92 94 94 95 95 96 96 97 98 98 99 99 100 100 100 101 102 102 102 103 102 102 102 102 102 101 100 100 99 98 98 97 96 95 95 94 93 93 92 92 91 90 90 89 88 87
75 75 76 76 76 76 76 76 75 75 75 75 76 76 77 78 79 80 81 82 83 84 85 85 86 87 88 89 88 87 85 86 88 89 90 92 92 92 91 92 93 95 96 96 97 98 99 99 100 101 101 101 101 102 102 102 102 102 102 102 102 101 100 100 99 98 97 97 96 95 94 93 92 92 91 90 90 89 88 88 87 87 86 85 85 84
72 72 72 72 73 73 73 73 73 74 75 75 76 77 78 79 80 81 82 83 84 85 85 86 87 87 88 89 89 88 86 87 88 90 91 92 93 93 93 94 95 96 98 99 99 100 101 101 102 102 103 103 103 103 102 102 102 101 101 100 99 98 98 97 96 95 94 93 92 91 90 89 89 88 87 87 86 85 85 84 84 83 83 82 81 81
69 69 69 70 70 71 72 73 74 75 76 77 78 79 80 81 82 83 84 84 85 85 86 87 87 88 88 88 88 88 87 88 89 91 92 94 95 95 95 96 97 99 100 101 101 102 103 103 103 103 103 103 103 102 101 101 100 99 98 97 96 95 94 93 92 91 90 89 88 87 86 86 85 84 83 83 82 82 81 81 80 80 79 79 78 77
66 67 68 69 70 72 73 74 75 76 77 78 79 81 82 83 83 84 84 85 85 86 86 87 87 88 88 88 89 89 88 89 91 92 94 96 97 97 98 98 99 101 102 103 103 103 104 104 104 104 103 102 101 100 99 98 97 95 94 94 93 92 91 89 88 87 86 85 84 83 83 82 81 80 80 79 79 78 78 77 77 76 76 75 75 74
66 68 69 70 72 73 75 76 77 78 78 79 81 82 83 84 84 85 85 85 86 87 87 88 88 88 88 89 90 90 90 91 93 95 96 98 99 100 99 100 101 102 103 104 104 104 104 104 103 102 101 100 98 97 96 94 93 92 91 90 89 88 87 86 84 83 82 82 81 80 79 78 78 77 76 76 75 75 74 74 74 73 73 73 72 72
68 69 71 72 73 75 76 77 78 79 80 80 82 83 83 84 85 86 86 86 87 87 88 88 89 89 90 91 92 92 93 94 94 96 97 99 101 101 101 101 102 103 104 105 104 104 103 103 101 100 98 96 95 93 91 90 89 88 87 86 85 84 83 82 81 80 79 78 77 76 76 75 74 73 73 72 72 71 71 71 71 70 70 70 70 69
70 71 72 74 75 76 77 78 79 80 81 81 82 83 84 84 85 86 86 87 88 88 89 90 91 91 92 92 93 94 94 95 96 97 98 100 101 102 102 102 103 104 104 104 103 102 101 100 98 96 94 92 91 89 87 86 85 84 83 82 81 80 79 78 77 76 76 75 74 73 72 72 71 70 69 69 68 68 68 68 68 67 67 68 68 68
71 72 73 75 76 77 78 79 80 81 81 82 83 84 84 85 86 87 87 88 89 90 90 92 93 93 94 94 94 95 95 96 96 98 99 101 102 102 102 102 102 103 103 102 100 99 98 96 94 92 90 88 87 85 83 82 81 80 79 78 77 76 75 74 74 73 73 72 71 70 69 68 67 67 66 65 65 65 65 65 65 65 65 66 66 66
72 73 74 76 77 78 79 80 81 81 82 83 84 85 86 86 87 88 89 90 90 91 92 93 94 94 94 95 95 96 96 97 97 99 100 101 102 102 101 100 100 100 100 99 97 96 94 93 91 89 87 85 83 81 79 78 77 75 74 73 73 72 71 71 71 70 70 69 68 67 66 65 64 64 63 63 62 62 62 62 63 63 64 65 65 65
73 74 75 77 78 79 80 81 82 83 83 84 85 86 87 88 89 90 91 91 91 92 93 94 95 95 95 96 96 97 97 98 98 99 99 100 100 100 99 98 97 96 96 95 94 92 91 89 87 85 83 81 79 77 75 74 72 71 70 70 69 69 68 68 68 67 67 66 65 64 63 62 61 61 60 60 60 60 60 61 62 63 64 64 64 63
74 75 76 78 79 80 81 82 83 84 85 85 86 87 88 89 90 91 92 92 92 93 94 95 95 96 97 97 98 98 98 98 98 98 98 98 98 97 96 94 93 92 92 92 90 89 88 86 84 82 79 77 75 73 71 70 69 68 67 66 66 66 66 65 65 64 64 63 62 61 60 60 59 59 59 59 59 59 60 61 62 63 63 63 63 61
75 76 77 79 80 81 82 83 84 85 86 86 87 88 88 89 90 92 92 92 93 94 95 96 96 97 98 98 98 97 97 96 96 95 95 95 95 94 92 90 89 88 88 88 87 86 85 82 80 78 76 73 71 69 67 66 65 64 64 63 63 63 63 62 62 61 61 60 60 59 58 58 58 58 58 58 58 59 60 61 62 62 62 62 61 60
76 77 79 80 81 82 83 84 85 86 86 87 88 89 89 90 91 92 93 94 94 95 96 97 97 97 97 97 96 96 95 94 92 92 91 91 91 90 88 87 85 84 84 84 83 83 81 79 76 74 72 69 67 66 64 63 62 61 61 61 60 60 60 59 59 59 58 58 58 57 57 57 57 57 57 57 58 59 59 60 61 61 61 61 60 59
78 79 80 81 82 83 84 85 86 87 88 88 89 90 91 91 92 93 94 95 95 96 97 97 96 96 95 95 94 93 92 90 89 88 87 87 87 86 84 83 82 81 80 79 79 79 78 76 74 71 68 66 64 62 60 59 59 58 58 58 58 58 57 57 57 57 57 57 57 56 56 56 56 56 56 57 57 58 59 60 60 60 59 59 58 57
79 80 81 82 83 84 85 86 87 88 89 90 91 92 92 93 94 94 95 95 95 95 95 95 94 93 92 91 91 90 89 87 85 84 83 83 83 82 81 80 79 78 76 75 74 74 73 72 71 68 66 63 61 59 57 56 56 56 56 56 56 55 55 55 55 55 56 56 55 55 55 55 55 55 55 56 57 57 58 58 58 58 57 57 56 55
81 81 83 84 85 86 87 88 89 90 91 92 92 93 94 94 94 94 94 94 94 93 93 92 91 90 89 88 87 86 84 83 82 80 80 79 79 78 77 76 75 74 73 71 70 69 69 68 67 65 64 61 59 57 55 54 54 54 54 54 54 54 54 54 54 55 55 55 54 54 54 54 54 54 54 55 55 55 55 55 55 55 55 55 54 53
81 83 84 85 86 87 88 89 90 91 92 93 93 94 94 94 93 93 93 92 91 90 90 89 88 87 86 85 83 82 80 79 78 77 76 76 76 75 74 73 72 71 69 68 67 66 65 64 63 62 61 59 57 55 53 53 52 52 52 53 53 53 53 53 54 54 54 53 53 53 52 52 52 52 53 53 53 53 53 53 52 52 53 52 52 51
83 84 85 87 88 89 90 91 91 92 92 93 93 93 92 92 91 91 90 89 88 87 86 85 84 83 82 81 80 78 77 75 74 73 72 72 72 71 71 70 68 67 66 65 64 62 61 60 59 59 58 57 56 54 53 52 51 52 52 52 52 53 53 53 53 53 52 52 52 51 51 51 51 51 51 50 50 50 50 50 50 50 50 50 50 49
85 86 87 88 89 90 91 91 91 91 91 91 91 90 90 89 88 88 87 86 85 84 83 82 81 79 78 77 76 75 74 72 71 70 69 68 68 68 67 66 65 64 63 62 61 60 59 58 57 56 55 55 54 54 52 52 51 51 51 52 52 52 52 52 51 51 51 50 50 50 49 49 49 48 48 47 47 47 47 47 47 47 48 47 47 46
86 87 88 89 89 90 90 90 90 89 89 88 88 87 87 86 85 85 84 83 82 81 80 78 77 76 74 73 72 71 70 69 68 67 65 65 64 64 64 63 62 61 60 59 58 57 56 55 55 54 54 54 54 53 53 52 52 52 52 52 52 51 51 50 49 49 49 49 48 48 48 47 46 46 45 45 45 45 45 45 45 45 45 45 44 44
87 88 88 88 88 88 88 88 87 87 86 86 85 85 84 83 83 82 81 80 79 77 76 75 73 72 71 70 69 68 67 66 64 63 62 61 61 61 60 60 60 59 58 57 56 55 54 53 53 53 53 53 53 53 53 52 52 52 52 52 51 50 49 48 47 47 47 47 46 46 45 45 44 43 43 43 42 42 42 42 42 42 42 42 42 42
87 87 86 86 86 85 85 85 85 84 84 83 83 82 82 81 80 79 77 76 75 74 73 72 70 69 68 67 66 65 63 62 61 60 59 58 58 58 58 57 57 56 55 55 54 53 52 52 52 52 52 53 53 53 53 52 52 52 52 52 51 49 47 46 45 45 45 44 44 43 43 42 42 41 41 41 40 40 40 40 39 39 40 40 40 40
84 84 84 84 83 83 83 83 82 82 82 81 81 80 79 78 76 75 74 73 72 70 69 68 67 66 65 64 63 61 60 59 57 57 56 55 55 55 55 55 55 54 54 53 52 52 51 51 51 51 52 52 53 53 53 53 52 52 52 51 50 48 46 44 43 43 43 42 42 41 41 40 40 39 39 38 38 38 38 38 38 38 38 38 38 38
82 82 82 82 81 81 81 81 81 80 80 79 78 77 75 74 73 72 71 69 68 67 67 66 65 64 62 61 59 58 57 55 54 54 53 53 53 53 53 53 52 52 52 52 51 51 50 50 50 50 51 51 52 53 53 53 52 51 50 49 48 47 45 43 42 41 41 40 39 39 38 38 38 37 37 36 36 36 36 36 36 36 37 37 37 37
80 80 80 80 80 80 80 79 79 78 77 76 75 74 72 71 70 69 68 67 66 65 64 63 62 61 59 58 56 54 53 52 52 51 51 51 51 51 51 51 51 51 51 51 51 50 50 50 50 50 50 51 52 52 52 52 51 49 48 47 46 45 44 42 41 40 39 38 38 37 37 36 36 35 35 35 35 35 35 35 35 35 36 36 36 36
79 79 79 79 79 79 78 77 76 75 74 73 71 70 69 68 67 66 65 64 63 62 61 60 59 58 57 55 53 52 50 49 49 49 49 49 49 49 49 49 49 50 50 50 50 50 49 49 49 49 50 50 51 51 51 50 49 47 45 44 43 43 42 41 39 38 37 37 36 36 35 35 35 34 34 34 34 34 34 34 35 35 35 35 35 36
79 79 79 78 78 77 76 75 74 72 71 70 68 67 66 65 64 64 63 62 61 60 59 58 57 55 54 52 51 49 48 47 47 46 47 47 47 48 48 48 49 49 49 50 50 49 49 49 48 48 48 49 49 50 49 48 47 45 43 42 41 40 39 39 38 37 36 35 35 35 34 34 34 34 34 34 34 34 34 34 34 34 34 35 35 35
78 78 77 77 76 75 74 72 71 69 68 66 65 64 63 63 62 61 61 60 59 58 56 55 54 53 52 50 48 47 46 45 44 44 45 45 46 46 47 48 48 49 49 49 49 49 49 48 48 47 47 48 48 48 47 45 44 42 41 40 39 38 38 37 37 36 35 34 34 34 34 33 34 34 34 34 34 34 34 34 34 34 34 34 34 34
77 76 76 74 73 72 71 69 68 66 65 64 63 62 61 60 60 59 58 57 56 55 54 53 52 51 49 48 46 45 44 43 43 43 43 44 45 46 46 47 48 49 49 49 49 48 48 47 47 46 46 46 46 45 44 42 41 40 39 38 37 36 36 36 35 35 34 34 34 33 33 33 33 34 34 34 34 34 34 34 33 33 33 33 33 33
75 75 73 72 71 69 68 66 65 64 63 61 60 60 59 58 57 56 56 55 54 53 52 50 49 48 47 46 44 43 42 42 42 42 43 43 44 45 46 47 48 48 49 49 48 48 47 46 45 45 44 44 44 43 42 40 38 37 37 36 35 35 34 34 34 34 34 34 33 33 33 33 33 34 34 34 34 34 34 34 34 33 33 33 32 33
74 72 71 70 68 67 65 64 63 61 60 59 58 57 56 56 55 54 53 52 51 50 49 48 47 46 45 44 43 42 41 41 41 42 42 43 44 44 45 46 47 48 48 48 47 47 46 45 44 43 42 42 42 40 39 37 36 35 35 34 34 33 33 33 33 33 33 33 33 33 33 33 34 34 34 34 34 34 34 34 34 33 33 33 32 32
71 70 68 67 66 64 63 62 61 59 58 57 56 55 54 53 52 51 50 50 49 48 47 46 45 44 44 43 42 41 41 41 41 42 42 43 43 44 45 46 46 47 47 47 46 45 44 43 42 41 40 40 39 38 37 35 35 34 33 33 33 32 32 32 32 33 33 33 33 33 34 34 34 34 34 34 34 34 34 34 34 33 33 33 32 32
69 68 66 65 63 62 61 60 59 58 56 55 54 53 52 51 50 49 48 47 47 46 45 44 44 43 42 42 41 41 41 41 41 42 42 43 43 44 45 45 46 46 46 46 45 44 42 41 39 38 38 37 36 35 34 34 33 32 32 32 32 31 32 32 32 32 32 33 33 33 34 34 34 34 34 34 34 34 34 34 33 33 33 33 33 32
67 66 64 62 61 60 59 58 57 56 55 54 52 51 50 49 47 46 46 45 44 44 43 43 42 42 42 41 41 41 41 41 42 42 42 43 43 44 44 45 45 45 45 44 43 42 40 38 37 36 36 35 34 33 32 32 31 31 31 31 31 31 31 31 32 32 32 32 33 33 34 34 34 34 34 34 34 34 33 33 33 33 33 33 33 32
Wind_Direction
276 276 277 277 278 278 279 279 280 280 281 281 282 282 283 283 283 283 283 283 283 284 284 284 285 285 285 285 286 286 287 287 288 288 288 289 289 289 289 289 290 290 290 290 290 290 290 290 289 289 289 289 289 289 288 288 288 288 288 288 288 288 288 288 288 287 287 287 287 286 286 285 285 284 283 283 282 281 280 280 279 278 277 276 275 274
276 276 277 277 278 278 279 279 280 280 281 281 282 282 282 282 282 283 283 283 283 284 284 285 285 285 285 286 286 286 287 287 288 288 288 289 289 289 289 289 289 289 290 289 289 289 289 289 288 288 288 288 288 288 288 288 288 288 288 288 288 288 288 288 288 287 287 287 286 286 286 285 285 284 283 283 282 281 280 279 279 278 277 276 275 274
276 277 277 277 278 278 279 280 280 281 282 282 283 283 283 283 283 283 284 284 284 284 285 285 285 285 286 286 286 287 287 287 288 288 288 288 288 289 289 289 289 289 289 289 289 288 288 288 288 288 288 288 288 288 288 288 288 288 288 288 288 288 288 288 287 287 287 287 286 286 286 285 284 284 283 283 282 281 280 280 279 278 277 276 275 274
276 277 277 278 278 279 279 280 281 281 282 283 283 283 283 284 284 284 285 285 285 285 285 286 286 286 286 286 287 287 287 287 287 288 288 288 288 288 288 288 289 288 288 288 288 288 288 288 287 287 287 287 287 288 288 288 288 288 288 288 288 288 288 287 287 287 287 287 286 286 286 285 285 284 283 283 282 281 281 280 279 278 278 277 276 275
276 277 277 278 278 279 279 280 280 281 282 282 283 283 284 284 284 285 285 285 286 286 286 286 286 287 287 287 287 287 287 287 287 287 288 288 288 288 288 288 288 288 288 288 288 288 287 287 287 287 287 287 287 288 288 288 288 288 288 288 288 288 288 287 287 287 287 287 286 286 285 285 285 284 284 283 282 282 281 280 280 279 278 277 276 275
277 277 278 278 278 279 279 280 280 281 281 282 283 283 284 284 285 285 285 286 286 286 286 287 287 287 287 287 287 287 287 287 287 288 288 288 288 288 288 288 288 287 287 287 287 287 287 287 287 287 287 288 288 288 288 288 288 288 288 288 288 288 288 288 287 287 287 286 286 286 285 285 284 284 283 283 282 282 281 281 280 279 278 277 276 276
277 277 278 278 278 279 279 280 280 281 281 282 283 283 284 284 285 285 285 286 286 286 287 287 286 286 286 287 287 287 287 287 288 288 288 288 288 288 287 287 287 287 287 287 287 287 287 287 287 288 288 288 288 288 288 288 288 288 288 288 288 288 288 288 287 287 287 286 286 285 285 284 284 284 283 283 282 282 281 280 280 279 278 278 277 276
277 277 278 278 279 279 279 280 280 281 281 282 283 283 284 284 285 285 286 286 286 286 286 286 286 286 286 287 287 287 287 287 288 288 287 287 287 287 287 287 287 287 287 287 287 287 287 287 287 287 287 287 287 288 288 288 288 288 288 288 288 288 288 287 287 287 286 286 285 285 285 284 284 284 283 283 282 282 281 280 280 279 278 278 277 276
277 278 278 278 279 279 280 280 281 281 282 282 283 283 284 285 285 285 286 286 286 286 286 286 286 287 287 287 287 287 287 287 287 287 287 287 287 287 287 287 287 287 287 287 287 287 287 287 287 287 287 287 287 287 288 288 288 288 288 288 288 287 287 287 287 286 286 286 285 285 285 284 284 284 283 283 282 282 281 280 280 279 279 278 277 276
277 278 278 279 279 280 280 281 281 282 282 283 283 284 284 285 285 285 286 286 286 286 286 286 286 287 287 287 287 287 287 287 287 287 287 287 287 287 287 287 287 287 287 287 287 287 287 287 287 287 287 287 287 288 288 288 288 288 288 288 287 287 287 287 287 286 286 286 286 285 285 285 284 284 283 283 282 282 281 281 280 279 279 278 278 277
278 278 279 279 280 280 280 281 281 282 283 283 283 284 284 284 285 285 285 286 286 286 286 286 286 286 286 287 287 287 287 287 287 287 287 287 287 287 287 287 287 288 288 288 287 287 287 287 287 287 287 288 288 288 288 288 288 288 288 288 287 287 287 287 287 286 286 286 286 285 285 285 284 284 283 283 282 282 281 281 280 280 279 279 278 277
278 278 279 280 280 280 281 281 282 282 283 283 284 284 284 284 285 285 285 286 286 286 286 286 286 286 286 286 287 287 287 287 287 288 288 288 288 288 288 288 288 288 288 288 288 288 288 288 288 288 288 288 288 288 288 288 288 288 288 288 288 287 287 287 287 287 286 286 286 285 285 285 284 284 283 283 282 282 281 281 280 280 279 279 278 278
278 279 279 280 280 281 281 282 282 283 283 283 284 284 284 285 285 285 285 285 285 286 286 286 286 286 286 286 286 287 287 288 288 288 288 288 288 288 288 288 288 288 288 288 288 288 288 288 288 288 288 288 288 288 288 288 288 288 288 288 288 288 288 287 287 287 286 286 286 285 285 284 284 283 283 282 282 282 281 281 280 280 279 279 278 278
278 279 280 280 280 281 282 282 283 283 283 284 284 284 285 285 285 285 285 285 285 285 285 285 286 286 286 286 287 287 287 288 288 288 289 288 288 288 289 289 289 289 289 289 289 289 289 289 289 289 289 289 289 289 289 289 289 289 289 289 288 288 288 288 287 287 286 286 285 285 285 284 284 283 283 282 282 282 281 281 280 280 279 279 278 278
279 279 280 281 281 282 282 283 283 283 284 284 284 284 284 284 284 284 284 284 285 285 285 286 286 286 286 287 287 287 288 288 289 289 289 289 289 289 289 289 289 289 289 289 289 289 289 289 289 289 289 289 289 290 290 290 290 289 289 289 289 288 288 288 287 287 286 286 285 285 284 284 283 283 283 282 282 281 281 280 280 279 279 278 278 278
280 280 281 281 282 282 283 283 283 283 283 284 284 284 284 284 284 284 284 284 285 285 286 286 286 287 287 287 287 288 288 289 289 289 289 289 289 289 289 289 289 289 289 289 289 290 290 290 290 290 290 290 290 290 290 290 290 290 289 289 289 288 288 288 287 287 286 286 285 285 284 284 283 283 282 282 282 281 281 280 280 279 279 279 278 278
280 281 282 282 282 283 283 283 283 283 283 283 283 283 284 284 284 284 285 285 285 286 286 286 287 287 287 288 288 289 289 289 289 289 289 289 289 289 290 290 290 290 290 290 290 290 290 291 291 291 291 291 291 291 291 290 290 290 290 289 289 288 288 288 287 286 286 285 285 285 284 284 283 283 282 282 281 281 281 280 280 279 279 279 278 278
281 282 282 282 282 282 282 282 282 283 283 283 283 284 284 284 285 285 285 285 286 286 286 287 287 287 287 288 288 289 290 289 289 289 289 289 289 290 290 290 290 290 290 291 291 291 291 291 291 291 291 291 291 291 291 290 290 290 290 289 289 288 288 287 287 286 286 285 285 285 284 284 283 283 282 282 281 281 281 280 280 279 279 279 278 278
281 281 281 282 282 282 282 282 283 283 283 284 284 285 285 285 285 285 286 286 286 286 287 287 287 287 287 288 289 290 290 290 290 290 290 290 290 291 291 291 291 291 291 291 291 291 291 291 291 291 291 291 291 291 291 290 290 290 289 289 289 288 288 287 287 286 286 285 285 285 284 284 283 283 282 282 281 281 281 280 280 280 279 279 279 278
281 281 281 281 282 282 283 283 283 284 284 285 285 285 285 286 286 286 286 286 286 287 287 287 287 288 288 289 289 290 291 291 291 290 290 291 291 291 291 291 291 291 291 291 291 291 291 291 291 291 291 291 291 290 290 290 290 290 289 289 288 288 288 287 287 286 286 285 285 284 284 283 283 283 282 282 281 281 281 281 280 280 279 279 279 278
281 281 282 282 283 283 283 284 284 285 285 285 285 286 286 286 286 286 286 287 287 287 288 288 288 289 289 290 290 291 291 291 291 291 291 291 291 291 292 292 292 291 291 291 291 291 291 291 291 291 291 290 290 290 290 290 290 289 289 289 288 288 288 287 287 286 286 285 285 284 284 283 283 282 282 282 282 281 281 281 280 280 279 279 279 278
282 282 283 283 283 284 284 284 285 285 285 285 286 286 286 286 286 287 287 288 288 288 289 289 289 290 291 291 291 291 292 292 291 291 291 291 291 291 292 292 292 291 291 291 291 291 291 290 290 290 290 290 290 290 290 290 290 289 289 289 288 288 288 287 286 286 285 285 284 284 283 283 283 282 282 282 282 281 281 281 280 280 279 279 278 278
283 283 284 284 284 284 284 285 285 285 285 286 286 286 286 287 287 288 288 289 289 289 290 290 291 291 291 291 291 292 292 292 292 291 291 291 291 291 291 292 291 291 291 291 291 290 290 290 290 290 290 290 290 290 290 290 290 289 289 289 288 288 287 287 286 286 285 284 284 283 283 283 283 282 282 282 282 281 281 281 280 280 279 279 278 277
284 284 284 284 284 285 285 285 285 286 286 286 286 287 287 288 288 289 289 290 290 290 290 291 291 291 291 291 291 291 291 291 291 291 291 291 291 291 291 291 291 291 291 290 290 290 290 290 290 290 290 290 290 290 290 290 290 289 289 288 288 287 287 286 286 285 284 284 283 283 283 283 283 283 282 282 282 281 281 281 280 280 279 278 278 277
284 285 285 285 285 285 285 286 286 286 287 287 288 288 289 289 289 290 290 290 290 290 291 291 291 291 291 291 291 291 291 291 291 291 291 291 291 291 291 291 291 291 290 290 290 290 290 290 290 290 290 290 290 290 290 290 290 289 289 288 288 287 286 286 285 285 284 284 284 284 283 283 283 283 283 282 282 282 281 281 280 280 279 278 277 277
285 285 285 285 285 286 286 287 287 287 288 288 289 289 290 290 290 290 290 290 290 291 291 291 291 291 291 291 291 292 292 292 292 291 291 291 291 291 291 291 291 291 290 290 290 290 290 290 290 290 290 290 290 290 290 290 289 289 288 288 287 287 286 285 285 285 284 284 284 284 284 284 284 283 283 283 282 282 282 281 280 280 279 278 278 277
285 285 286 286 286 287 287 288 288 289 289 289 290 290 290 290 291 291 290 291 291 291 291 291 291 292 292 292 292 292 292 292 292 292 291 291 291 291 291 291 291 291 291 290 290 290 290 290 290 290 290 290 290 290 290 290 289 289 288 287 287 286 286 285 285 285 285 285 285 285 285 285 284 284 284 283 283 282 282 281 280 279 279 278 278 278
286 286 287 287 288 288 289 289 289 290 290 290 290 290 291 291 291 291 291 291 292 292 292 292 292 292 292 292 292 292 292 292 292 292 292 292 291 291 291 291 291 291 291 291 291 290 290 290 290 291 291 291 290 290 290 289 289 288 288 287 286 286 286 285 285 285 285 286 286 286 285 285 285 285 284 284 283 283 282 281 280 279 279 279 279 279
287 288 288 289 289 289 290 290 290 291 291 291 291 291 291 291 291 291 292 292 292 292 292 292 293 293 293 293 293 293 293 292 292 292 292 292 292 291 291 291 291 291 291 291 291 291 290 290 290 290 291 290 290 290 290 289 289 288 287 287 286 286 286 286 286 286 286 286 286 286 286 286 285 285 285 285 284 283 282 281 280 280 279 280 280 280
289 290 290 290 291 291 291 291 291 292 292 292 292 292 292 292 292 292 292 293 293 293 293 293 293 293 293 293 293 293 293 292 292 292 292 292 292 291 291 291 291 291 291 291 291 291 290 290 290 290 290 290 290 290 290 289 288 288 287 287 286 286 286 286 286 286 286 286 286 286 286 286 286 286 286 285 284 283 282 281 280 280 281 281 281 281
291 292 292 292 292 292 292 292 292 292 292 293 293 293 293 293 293 293 293 293 293 293 294 294 294 294 294 293 293 293 293 293 293 292 292 292 292 291 291 291 291 291 291 290 290 290 290 291 290 290 290 290 290 290 289 289 288 288 287 287 286 286 286 287 287 287 287 286 286 286 287 287 287 286 286 285 283 282 282 281 281 282 282 282 282 282
293 293 293 293 293 293 293 293 293 293 293 293 293 293 294 294 294 294 294 294 294 294 294 294 294 294 294 294 293 293 293 293 293 293 292 292 292 291 291 291 291 291 290 290 290 290 290 291 291 291 291 290 290 290 289 289 288 288 287 287 287 287 287 287 287 287 287 287 287 287 287 287 287 286 285 284 283 282 282 282 282 283 283 283 283 282
294 294 294 294 294 294 294 294 294 294 294 294 294 294 295 295 295 295 295 295 295 294 294 294 294 294 294 294 293 293 293 293 293 293 292 292 292 292 291 291 291 291 290 290 290 290 290 290 291 291 291 291 291 290 290 289 289 288 288 288 288 288 288 288 288 288 288 288 288 288 288 288 287 285 284 283 283 283 283 283 283 283 283 283 282 282
295 295 294 294 294 294 294 294 294 294 295 295 295 295 295 295 295 295 295 295 295 295 295 294 294 294 294 294 293 293 293 293 293 293 292 292 292 292 291 291 291 290 290 290 290 290 290 290 291 291 291 291 291 291 290 290 289 289 289 289 289 289 289 289 289 289 289 289 289 289 288 287 286 285 284 284 284 284 284 284 284 283 283 283 283 283
295 295 295 295 295 295 295 295 295 295 295 296 296 296 296 296 296 296 296 295 295 295 295 294 294 294 294 294 293 293 293 293 293 293 292 292 292 291 291 291 290 290 290 290 290 290 290 291 291 291 292 292 292 291 291 291 291 290 290 290 290 290 289 290 290 290 290 290 290 289 287 286 285 285 284 284 284 284 284 283 283 283 283 283 283 283
296 296 295 295 295 296 296 296 296 296 296 296 296 296 296 296 296 296 296 295 295 295 295 294 294 294 294 294 293 293 293 293 293 293 293 292 292 291 291 291 290 290 290 290 291 291 291 291 291 291 292 292 292 292 292 292 292 291 291 291 290 290 290 291 291 292 291 291 289 288 287 286 286 285 285 285 284 283 283 282 282 282 282 283 283 283
296 296 296 296 296 296 297 297 297 297 297 297 297 297 297 297 296 296 296 296 295 295 295 294 294 294 294 294 293 293 294 293 293 293 293 292 292 291 291 290 291 290 291 291 291 291 291 292 292 292 292 292 293 293 293 293 293 292 292 291 291 291 292 292 293 292 291 290 289 288 287 286 286 285 285 284 283 282 282 282 282 282 282 283 283 283
297 297 297 297 297 297 297 298 298 298 298 298 298 297 297 297 297 296 296 296 295 295 295 295 294 294 294 294 294 294 294 294 293 293 293 292 291 291 291 290 291 291 291 291 291 292 292 292 292 293 293 293 294 294 294 294 294 293 293 292 292 293 293 293 293 292 290 289 288 288 287 287 286 285 284 283 282 282 281 281 282 282 282 282 282 282
298 298 298 298 298 298 299 299 299 299 299 298 298 298 298 297 297 297 296 296 296 295 295 295 295 294 294 294 294 294 294 294 293 293 292 292 291 291 291 291 291 291 291 291 292 292 292 293 293 294 294 295 295 295 295 295 295 294 294 294 294 294 294 293 292 291 289 289 288 288 287 286 285 284 284 283 282 282 282 282 282 282 282 282 282 282
299 299 299 299 299 300 300 300 300 299 299 299 299 298 298 298 297 297 297 296 296 296 295 295 295 295 295 294 294 294 294 294 293 293 292 291 291 291 291 291 291 291 292 292 292 293 293 294 294 295 296 296 296 296 296 295 295 295 295 295 295 295 294 293 291 290 289 289 288 287 287 286 285 284 284 283 283 283 282 282 282 282 282 282 283 283
300 300 300 301 301 301 301 301 300 300 300 300 299 299 299 298 298 297 297 297 296 296 296 295 295 295 295 295 295 294 294 294 293 293 292 291 291 291 291 291 291 292 292 292 293 293 294 295 295 296 297 297 297 297 296 296 295 296 296 296 296 295 294 293 292 290 290 289 288 287 287 286 285 285 284 284 284 284 283 283 283 283 283 283 283 284
302 302 302 302 302 302 302 302 301 301 301 300 300 299 299 299 298 298 297 297 297 296 296 296 296 295 295 295 295 295 294 294 293 293 292 292 291 291 291 291 292 292 292 293 294 294 295 296 297 298 298 298 297 297 296 296 296 296 296 296 296 294 294 293 292 291 290 289 289 288 287 287 286 286 286 285 285 285 285 285 285 285 285 285 285 285
303 303 303 303 303 303 303 302 302 302 301 301 300 300 299 299 299 298 298 298 297 297 297 296 296 296 296 296 295 295 295 294 294 293 292 292 292 292 292 292 292 293 293 293 294 295 296 297 298 298 298 298 297 296 296 296 296 296 296 296 295 294 293 293 293 292 291 290 289 289 289 288 288 288 287 287 287 286 286 286 286 286 286 286 285 285
305 305 305 304 304 304 303 303 303 302 302 301 301 300 300 300 299 299 298 298 298 297 297 297 297 296 296 296 296 296 295 294 294 293 293 292 292 292 293 293 293 293 294 294 295 296 297 298 299 299 298 297 296 296 295 296 296 296 296 295 294 293 293 293 293 292 292 291 291 290 290 290 290 290 289 289 288 288 288 287 287 287 286 286 286 285
306 306 305 305 305 305 304 304 303 303 302 302 301 301 301 300 300 299 299 299 298 298 298 297 297 297 296 296 296 296 295 295 294 293 293 293 293 293 293 293 294 294 294 295 296 297 298 299 299 299 298 297 296 295 295 296 296 296 295 294 294 293 293 293 293 293 292 292 292 292 292 291 291 291 291 291 290 289 289 288 288 287 287 286 286 285
307 307 306 306 306 305 305 304 304 303 303 302 302 301 301 301 300 300 299 299 299 298 298 297 297 297 297 297 297 296 296 295 294 293 293 293 293 293 293 294 294 294 295 296 297 298 299 299 299 299 298 296 295 295 295 295 295 295 294 294 293 293 293 293 293 293 293 293 293 293 293 292 292 292 292 291 291 290 290 289 288 288 287 287 286 286
308 308 307 307 307 306 306 305 305 304 303 303 302 302 301 301 300 300 300 299 299 298 298 298 297 297 297 297 297 296 296 295 294 293 293 293 293 293 293 294 294 295 295 296 297 298 299 299 299 298 297 296 295 295 295 295 294 294 293 293 293 293 293 293 293 294 294 294 294 294 293 293 293 293 292 292 291 291 291 290 289 289 288 288 287 287
309 309 308 308 307 307 306 306 305 304 304 303 303 302 302 301 301 300 300 299 299 298 298 298 298 297 297 297 297 297 296 295 294 294 293 293 293 293 294 294 294 295 296 297 298 299 299 300 299 298 296 295 295 294 295 294 294 293 293 293 293 293 293 293 294 294 294 294 294 294 294 293 293 292 292 292 292 291 291 291 291 291 290 289 289 288
310 310 309 309 308 307 307 306 306 305 304 304 303 302 302 301 301 300 300 300 299 299 298 298 298 298 298 298 297 297 296 295 295 294 294 294 294 294 294 294 295 295 296 297 298 299 299 299 298 297 296 294 294 294 294 294 293 293 292 293 293 293 293 294 294 294 294 295 294 294 294 293 293 292 292 292 292 292 292 292 292 292 291 291 290 290
311 310 310 309 309 308 307 307 306 305 305 304 303 303 302 302 301 301 300 300 300 299 299 299 298 298 298 298 297 297 296 295 295 294 294 294 294 294 295 295 296 296 297 298 298 299 299 299 298 296 295 294 293 293 293 293 292 292 292 292 293 293 294 294 294 294 294 294 294 294 293 293 293 293 292 292 292 292 292 292 292 292 292 292 291 290
311 311 311 310 309 309 308 307 306 305 305 304 303 303 303 302 302 301 301 300 300 300 299 299 299 299 298 298 297 297 296 295 295 295 295 295 295 295 296 296 296 297 298 298 299 299 299 298 297 295 294 293 292 292 292 292 292 292 292 292 293 293 294 294 294 294 293 293 293 293 293 292 292 292 292 292 292 292 292 292 292 292 292 292 291 291
Height
10492 10490 10489 10488 10486 10483 10479 10476 10475 10474 10472 10470 10470 10470 10469 10467 10465 10462 10460 10458 10455 10453 10450 10449 10447 10445 10444 10442 10440 10439 10437 10435 10434 10433 10432 10430 10430 10429 10427 10426 10425 10424 10423 10422 10420 10419 10419 10417 10416 10415 10414 10412 10411 10410 10409 10407 10407 10405 10405 10404 10403 10402 10402 10400 10400 10399 10398 10397 10396 10395 10395 10394 10394 10392 10392 10391 10390 10389 10388 10387 10387 10387 10387 10386 10386 10387
10484 10483 10482 10480 10479 10477 10472 10469 10468 10467 10465 10463 10462 10462 10461 10459 10456 10454 10452 10450 10448 10446 10444 10441 10439 10437 10435 10434 10432 10431 10430 10429 10427 10426 10425 10424 10422 10421 10420 10419 10417 10417 10415 10414 10414 10412 10411 10410 10409 10407 10406 10405 10403 10402 10401 10400 10399 10397 10397 10396 10395 10394 10394 10393 10392 10391 10390 10389 10388 10387 10386 10385 10384 10383 10382 10381 10380 10379 10379 10378 10377 10377 10376 10376 10376 10376
10476 10475 10473 10472 10472 10470 10466 10462 10460 10459 10457 10455 10454 10452 10452 10450 10447 10445 10444 10442 10440 10438 10436 10434 10432 10430 10428 10426 10425 10424 10422 10421 10420 10419 10418 10417 10415 10414 10413 10412 10410 10409 10408 10407 10405 10405 10404 10402 10401 10400 10399 10397 10395 10394 10393 10392 10391 10390 10389 10388 10387 10387 10386 10385 10384 10383 10382 10381 10380 10379 10377 10375 10374 10374 10372 10371 10370 10370 10369 10368 10367 10367 10366 10366 10365 10365
10469 10467 10465 10464 10464 10462 10459 10456 10454 10452 10450 10448 10446 10444 10442 10441 10439 10437 10435 10434 10432 10430 10428 10426 10424 10422 10420 10419 10417 10416 10415 10414 10413 10412 10410 10409 10408 10407 10405 10404 10403 10402 10400 10399 10398 10397 10395 10395 10394 10392 10390 10389 10388 10387 10385 10384 10383 10382 10381 10380 10380 10379 10378 10377 10376 10375 10374 10372 10371 10370 10368 10367 10365 10364 10362 10361 10360 10359 10359 10357 10357 10356 10355 10355 10355 10355
10461 10460 10458 10457 10455 10453 10450 10449 10447 10445 10442 10440 10438 10436 10435 10433 10432 10430 10428 10427 10425 10422 10420 10418 10416 10414 10412 10410 10409 10409 10408 10407 10405 10404 10403 10402 10400 10399 10398 10397 10395 10394 10392 10391 10390 10389 10388 10387 10385 10384 10383 10381 10380 10379 10377 10377 10375 10375 10374 10373 10372 10371 10370 10369 10368 10366 10365 10364 10362 10360 10359 10357 10355 10354 10352 10351 10350 10349 10348 10347 10346 10345 10345 10344 10344 10344
10454 10453 10452 10450 10448 10445 10443 10442 10440 10438 10435 10433 10430 10429 10427 10426 10424 10422 10421 10419 10417 10415 10413 10411 10409 10407 10405 10403 10402 10401 10400 10399 10399 10397 10395 10394 10393 10392 10390 10389 10387 10386 10385 10384 10382 10381 10380 10379 10377 10376 10375 10373 10372 10370 10370 10369 10368 10367 10366 10365 10364 10363 10362 10360 10359 10358 10356 10355 10353 10352 10350 10348 10346 10345 10343 10342 10340 10339 10337 10336 10335 10334 10334 10334 10333 10332
10445 10445 10444 10442 10440 10437 10436 10434 10432 10431 10429 10426 10424 10422 10420 10419 10417 10415 10414 10412 10410 10408 10405 10403 10400 10399 10397 10395 10394 10394 10393 10392 10391 10390 10388 10387 10385 10384 10382 10381 10380 10379 10377 10376 10374 10373 10372 10370 10369 10368 10367 10365 10364 10363 10362 10361 10360 10359 10359 10357 10356 10355 10354 10352 10350 10349 10347 10345 10344 10342 10340 10339 10337 10335 10334 10332 10330 10329 10327 10325 10324 10324 10322 10322 10322 10321
10438 10437 10436 10435 10432 10430 10428 10427 10425 10424 10423 10420 10418 10415 10413 10411 10410 10409 10407 10405 10403 10400 10399 10395 10393 10391 10389 10388 10387 10386 10385 10385 10384 10382 10380 10379 10377 10376 10375 10374 10372 10371 10370 10368 10367 10365 10364 10363 10362 10360 10359 10357 10356 10355 10354 10354 10352 10352 10350 10349 10348 10347 10345 10344 10342 10340 10339 10337 10335 10333 10331 10329 10327 10325 10324 10322 10320 10318 10316 10315 10314 10312 10311 10310 10310 10309
10431 10429 10427 10427 10425 10423 10420 10419 10417 10417 10416 10414 10412 10409 10407 10404 10402 10400 10399 10397 10395 10394 10392 10389 10386 10383 10381 10380 10380 10379 10378 10377 10377 10375 10373 10372 10370 10369 10367 10366 10365 10363 10362 10360 10359 10357 10356 10355 10354 10352 10351 10350 10349 10347 10347 10345 10345 10344 10343 10342 10340 10339 10337 10335 10333 10331 10329 10327 10325 10323 10320 10319 10317 10315 10312 10310 10309 10307 10305 10304 10302 10300 10299 10299 10298 10297
10424 10422 10420 10419 10418 10417 10415 10411 10409 10409 10409 10407 10405 10403 10401 10399 10395 10393 10391 10389 10387 10386 10385 10382 10379 10376 10374 10372 10372 10372 10371 10370 10369 10368 10367 10364 10362 10360 10359 10358 10357 10355 10354 10352 10350 10349 10348 10347 10345 10344 10343 10342 10340 10340 10339 10338 10337 10336 10335 10334 10332 10330 10328 10326 10324 10322 10319 10317 10315 10312 10310 10308 10306 10304 10302 10299 10297 10295 10294 10292 10290 10289 10288 10287 10286 10285
10417 10415 10414 10412 10410 10409 10408 10405 10403 10402 10402 10400 10398 10396 10394 10392 10390 10387 10384 10381 10379 10379 10377 10375 10373 10370 10367 10365 10364 10365 10365 10364 10362 10360 10359 10357 10355 10353 10351 10350 10349 10347 10345 10344 10342 10340 10339 10338 10337 10336 10335 10334 10332 10332 10331 10330 10329 10328 10327 10325 10323 10321 10319 10316 10314 10312 10309 10307 10304 10302 10299 10297 10295 10292 10290 10288 10285 10284 10282 10280 10279 10277 10276 10275 10274 10274
10410 10409 10407 10405 10404 10402 10400 10399 10397 10396 10395 10394 10391 10388 10386 10385 10384 10382 10379 10375 10372 10371 10369 10367 10365 10364 10362 10359 10358 10357 10357 10357 10355 10353 10351 10349 10347 10345 10344 10342 10340 10339 10337 10335 10334 10332 10330 10330 10329 10327 10326 10325 10324 10324 10323 10322 10321 10320 10318 10316 10314 10311 10309 10306 10304 10301 10299 10296 10294 10291 10289 10286 10284 10281 10279 10277 10274 10272 10271 10269 10267 10266 10265 10264 10263 10262
10404 10402 10401 10399 10397 10395 10394 10392 10390 10389 10388 10387 10384 10382 10379 10377 10377 10375 10372 10369 10366 10364 10362 10360 10358 10356 10355 10354 10352 10351 10350 10349 10348 10346 10344 10341 10338 10336 10335 10334 10332 10330 10329 10327 10324 10322 10322 10321 10320 10319 10317 10317 10315 10315 10314 10314 10312 10310 10308 10306 10304 10301 10299 10296 10294 10290 10288 10285 10282 10280 10277 10275 10272 10270 10267 10265 10264 10262 10260 10258 10256 10255 10254 10252 10252 10250
10397 10396 10395 10393 10390 10389 10388 10387 10385 10382 10380 10379 10377 10375 10373 10371 10370 10368 10365 10362 10360 10358 10357 10354 10351 10349 10347 10346 10345 10345 10345 10343 10341 10339 10336 10333 10330 10329 10327 10326 10324 10321 10320 10318 10315 10313 10312 10312 10311 10309 10308 10307 10307 10305 10305 10304 10302 10300 10298 10295 10293 10290 10288 10285 10282 10280 10277 10274 10272 10269 10266 10264 10261 10259 10257 10254 10252 10250 10249 10247 10245 10244 10243 10242 10240 10240
10392 10390 10389 10387 10384 10383 10382 10380 10378 10375 10374 10372 10371 10369 10367 10365 10363 10361 10359 10356 10353 10352 10350 10348 10345 10342 10340 10339 10339 10339 10339 10337 10335 10332 10329 10324 10321 10320 10320 10319 10315 10312 10310 10309 10307 10304 10303 10303 10302 10300 10298 10297 10297 10296 10295 10294 10292 10290 10287 10285 10282 10280 10277 10274 10272 10269 10266 10263 10260 10257 10255 10252 10250 10248 10246 10244 10242 10240 10238 10236 10235 10234 10232 10231 10230 10229
10386 10385 10383 10380 10379 10377 10375 10374 10372 10369 10367 10365 10364 10362 10360 10358 10356 10354 10353 10350 10347 10345 10344 10342 10339 10335 10332 10331 10332 10332 10332 10330 10328 10325 10322 10317 10312 10311 10312 10312 10308 10304 10301 10300 10299 10297 10295 10294 10292 10290 10289 10287 10287 10285 10284 10283 10281 10279 10276 10274 10271 10269 10266 10264 10260 10257 10255 10252 10249 10247 10244 10242 10239 10237 10235 10234 10231 10229 10228 10226 10225 10223 10222 10220 10220 10219
10380 10379 10377 10374 10372 10370 10368 10367 10365 10363 10361 10359 10358 10356 10354 10352 10350 10348 10346 10343 10341 10339 10337 10335 10333 10330 10325 10322 10322 10325 10327 10325 10321 10317 10314 10309 10305 10302 10304 10304 10301 10296 10292 10291 10290 10288 10286 10284 10282 10280 10279 10278 10277 10275 10274 10272 10270 10268 10265 10263 10260 10258 10255 10252 10249 10247 10244 10241 10239 10236 10234 10231 10229 10227 10225 10223 10221 10219 10218 10216 10215 10213 10212 10211 10210 10210
10374 10372 10370 10369 10366 10364 10362 10360 10359 10357 10355 10354 10351 10350 10348 10346 10344 10341 10339 10337 10334 10332 10330 10329 10327 10324 10321 10317 10314 10315 10319 10319 10315 10309 10306 10302 10297 10295 10296 10296 10293 10289 10284 10282 10280 10279 10277 10274 10272 10270 10269 10268 10267 10265 10264 10262 10260 10257 10255 10252 10250 10247 10244 10241 10239 10235 10233 10230 10228 10226 10224 10221 10219 10217 10215 10213 10211 10210 10208 10207 10205 10204 10203 10202 10202 10201
10368 10366 10365 10362 10360 10357 10355 10354 10352 10350 10349 10347 10345 10344 10341 10339 10337 10335 10332 10330 10328 10326 10324 10322 10319 10317 10315 10312 10309 10308 10310 10310 10307 10302 10298 10294 10289 10287 10287 10287 10284 10280 10275 10273 10271 10269 10267 10265 10262 10260 10259 10258 10257 10255 10254 10252 10249 10247 10244 10242 10239 10236 10234 10230 10228 10225 10223 10220 10219 10216 10214 10212 10210 10207 10205 10204 10202 10200 10199 10198 10197 10195 10194 10194 10193 10192
10362 10360 10359 10357 10354 10352 10349 10348 10346 10345 10343 10341 10339 10337 10334 10332 10330 10328 10325 10323 10321 10319 10317 10315 10312 10309 10308 10306 10304 10302 10302 10302 10299 10295 10290 10286 10282 10279 10278 10277 10275 10271 10266 10264 10261 10260 10258 10255 10253 10251 10250 10249 10247 10245 10244 10242 10240 10237 10235 10232 10229 10226 10224 10220 10218 10215 10214 10211 10209 10207 10205 10202 10200 10199 10197 10195 10194 10192 10191 10190 10189 10187 10186 10185 10185 10184
10356 10354 10352 10352 10349 10346 10343 10342 10340 10339 10337 10335 10333 10330 10327 10325 10322 10320 10318 10317 10315 10312 10310 10308 10305 10303 10302 10300 10297 10294 10294 10294 10291 10286 10281 10277 10274 10270 10269 10269 10267 10262 10257 10254 10252 10250 10248 10246 10244 10242 10240 10239 10238 10237 10235 10232 10230 10228 10225 10222 10219 10217 10214 10211 10209 10207 10204 10202 10200 10198 10196 10194 10192 10191 10189 10188 10186 10185 10184 10182 10180 10179 10179 10177 10177 10176
10351 10349 10347 10345 10344 10341 10338 10335 10334 10332 10331 10329 10326 10323 10320 10318 10315 10313 10311 10310 10308 10305 10302 10300 10298 10296 10295 10292 10290 10287 10286 10285 10283 10279 10274 10269 10264 10260 10259 10260 10259 10254 10249 10245 10242 10240 10239 10236 10234 10233 10232 10230 10229 10227 10225 10224 10221 10219 10216 10213 10210 10207 10205 10202 10200 10198 10195 10194 10192 10190 10188 10187 10185 10184 10182 10180 10179 10177 10176 10174 10173 10172 10171 10170 10169 10168
10345 10343 10341 10339 10338 10335 10333 10330 10328 10326 10324 10322 10320 10317 10314 10312 10309 10307 10304 10302 10300 10298 10295 10293 10290 10289 10287 10285 10282 10280 10278 10277 10275 10272 10267 10262 10257 10252 10250 10251 10249 10245 10240 10235 10233 10231 10229 10227 10225 10224 10223 10222 10220 10219 10217 10215 10212 10210 10207 10204 10202 10199 10196 10194 10192 10189 10187 10185 10184 10182 10180 10179 10178 10177 10175 10174 10172 10170 10169 10167 10166 10165 10164 10162 10161 10160
10340 10337 10335 10333 10331 10329 10327 10324 10322 10320 10317 10315 10313 10310 10307 10305 10303 10300 10298 10296 10294 10290 10288 10285 10283 10280 10279 10277 10275 10273 10270 10269 10267 10264 10259 10254 10249 10245 10243 10242 10240 10235 10230 10226 10224 10222 10220 10217 10215 10215 10214 10213 10212 10210 10209 10207 10204 10202 10199 10196 10194 10190 10188 10186 10184 10181 10179 10177 10176 10175 10174 10172 10171 10170 10169 10167 10165 10164 10162 10160 10159 10157 10156 10154 10153 10152
10335 10332 10329 10327 10325 10323 10320 10318 10315 10314 10311 10309 10306 10304 10301 10299 10296 10294 10292 10289 10287 10284 10281 10279 10276 10273 10270 10269 10267 10265 10262 10260 10259 10256 10251 10246 10241 10237 10234 10233 10231 10227 10221 10217 10214 10213 10210 10208 10207 10206 10205 10204 10203 10202 10200 10199 10196 10194 10191 10188 10185 10183 10180 10178 10175 10174 10172 10170 10169 10167 10167 10165 10164 10163 10162 10160 10159 10157 10155 10154 10152 10150 10149 10147 10145 10144
10329 10327 10324 10321 10319 10317 10314 10312 10309 10307 10305 10302 10300 10297 10294 10292 10289 10287 10284 10281 10279 10277 10275 10272 10268 10265 10263 10262 10259 10257 10254 10252 10249 10247 10242 10239 10234 10229 10225 10224 10222 10219 10213 10208 10205 10203 10202 10199 10198 10197 10197 10196 10195 10194 10192 10190 10189 10186 10183 10180 10178 10175 10173 10170 10169 10166 10164 10163 10162 10160 10160 10159 10157 10156 10154 10153 10152 10150 10149 10147 10145 10143 10141 10139 10138 10137
10324 10321 10318 10315 10313 10310 10308 10306 10304 10301 10299 10296 10294 10291 10289 10285 10283 10279 10276 10274 10272 10270 10267 10264 10260 10257 10254 10252 10250 10248 10245 10243 10240 10236 10233 10230 10225 10220 10216 10214 10212 10209 10204 10200 10196 10194 10192 10190 10190 10189 10189 10188 10187 10186 10185 10183 10181 10179 10176 10174 10171 10169 10166 10164 10162 10159 10158 10157 10155 10154 10153 10152 10150 10149 10148 10146 10145 10144 10142 10140 10138 10136 10134 10132 10132 10131
10318 10315 10312 10310 10307 10305 10302 10300 10297 10295 10292 10290 10287 10284 10282 10279 10276 10272 10268 10265 10264 10262 10259 10255 10252 10249 10246 10243 10240 10239 10237 10234 10230 10227 10224 10220 10215 10211 10207 10206 10204 10200 10197 10192 10187 10185 10184 10182 10182 10181 10180 10180 10179 10179 10177 10176 10174 10171 10169 10166 10164 10162 10159 10157 10155 10154 10152 10150 10149 10148 10147 10145 10144 10142 10141 10140 10139 10137 10135 10133 10131 10129 10127 10126 10125 10125
10312 10310 10307 10304 10302 10299 10297 10294 10291 10289 10286 10283 10280 10277 10274 10272 10269 10265 10260 10258 10256 10254 10250 10247 10244 10241 10238 10234 10232 10229 10227 10224 10221 10218 10215 10211 10206 10202 10200 10198 10195 10192 10189 10185 10180 10176 10175 10174 10174 10174 10173 10172 10172 10171 10170 10169 10167 10164 10162 10159 10157 10155 10153 10151 10149 10147 10146 10145 10144 10142 10140 10139 10138 10137 10135 10134 10132 10130 10128 10125 10124 10122 10121 10120 10120 10119
10307 10304 10301 10299 10295 10293 10290 10287 10284 10281 10279 10275 10272 10269 10266 10264 10261 10257 10254 10250 10248 10245 10241 10237 10235 10232 10229 10226 10222 10219 10217 10215 10212 10210 10206 10202 10197 10193 10192 10189 10187 10184 10182 10178 10174 10169 10166 10165 10167 10167 10167 10166 10165 10165 10164 10162 10160 10157 10155 10153 10151 10149 10147 10145 10144 10142 10140 10139 10137 10136 10135 10134 10132 10130 10129 10127 10125 10123 10120 10119 10117 10116 10115 10114 10114 10113
10300 10297 10294 10291 10289 10285 10283 10279 10276 10273 10270 10267 10264 10261 10258 10255 10252 10249 10245 10242 10239 10236 10232 10229 10225 10223 10220 10217 10214 10210 10207 10205 10204 10202 10199 10194 10189 10185 10184 10181 10179 10176 10175 10172 10168 10163 10159 10157 10158 10159 10160 10159 10159 10159 10157 10155 10154 10151 10149 10147 10145 10143 10142 10140 10139 10137 10135 10134 10132 10130 10129 10128 10127 10125 10123 10120 10118 10116 10114 10112 10111 10110 10109 10109 10107 10107
10293 10290 10287 10284 10280 10277 10274 10271 10268 10265 10262 10259 10255 10252 10249 10246 10243 10240 10237 10234 10230 10227 10224 10220 10217 10214 10211 10209 10206 10202 10199 10197 10195 10193 10190 10185 10181 10177 10176 10174 10170 10169 10167 10165 10162 10159 10155 10151 10150 10150 10152 10152 10152 10152 10151 10150 10147 10145 10143 10141 10139 10137 10136 10135 10133 10131 10129 10128 10127 10125 10124 10122 10120 10119 10116 10114 10112 10110 10109 10107 10106 10105 10104 10102 10101 10100
10286 10283 10280 10277 10273 10270 10266 10263 10260 10256 10253 10250 10247 10244 10240 10237 10234 10231 10227 10224 10221 10218 10215 10211 10208 10205 10202 10200 10197 10194 10192 10189 10187 10185 10182 10178 10174 10170 10168 10166 10164 10161 10159 10158 10156 10154 10151 10147 10145 10144 10144 10144 10145 10145 10144 10144 10142 10139 10137 10135 10134 10132 10130 10129 10127 10125 10124 10122 10121 10120 10119 10117 10114 10112 10110 10108 10106 10104 10103 10102 10100 10099 10098 10097 10095 10095
10279 10275 10272 10269 10265 10262 10259 10255 10252 10249 10245 10242 10238 10235 10232 10229 10225 10222 10219 10215 10212 10209 10206 10203 10200 10197 10194 10191 10189 10186 10184 10182 10180 10178 10175 10171 10167 10164 10160 10159 10157 10155 10153 10151 10149 10148 10146 10144 10141 10139 10137 10137 10137 10138 10138 10137 10135 10134 10132 10130 10128 10126 10125 10123 10122 10120 10119 10117 10115 10114 10112 10110 10108 10106 10104 10102 10101 10100 10099 10097 10095 10094 10092 10091 10090 10090
10272 10268 10265 10261 10257 10254 10250 10247 10244 10240 10237 10234 10230 10227 10224 10220 10217 10213 10210 10207 10204 10200 10197 10195 10192 10189 10186 10183 10180 10178 10175 10174 10173 10170 10168 10164 10160 10157 10154 10152 10150 10149 10147 10145 10143 10142 10140 10139 10137 10135 10133 10131 10131 10131 10131 10130 10129 10128 10126 10124 10122 10120 10119 10118 10116 10114 10113 10111 10110 10108 10106 10104 10102 10100 10099 10098 10097 10095 10094 10092 10090 10089 10088 10087 10086 10085
10264 10260 10257 10253 10250 10246 10242 10239 10235 10232 10229 10225 10222 10219 10215 10212 10208 10205 10202 10199 10195 10192 10189 10187 10184 10182 10179 10176 10174 10170 10168 10167 10165 10164 10161 10158 10154 10151 10147 10145 10144 10142 10141 10139 10137 10136 10135 10133 10132 10130 10129 10127 10125 10125 10125 10124 10124 10122 10120 10119 10117 10115 10114 10113 10111 10109 10107 10105 10103 10102 10100 10098 10097 10095 10094 10094 10092 10090 10089 10087 10086 10085 10084 10083 10082 10082
10256 10252 10249 10245 10242 10238 10234 10230 10227 10224 10220 10217 10213 10210 10207 10204 10200 10197 10194 10190 10187 10184 10181 10179 10176 10174 10172 10169 10167 10164 10162 10160 10159 10157 10154 10151 10148 10145 10142 10139 10138 10137 10135 10134 10132 10131 10130 10128 10127 10125 10124 10122 10120 10119 10119 10118 10117 10115 10114 10112 10111 10110 10109 10108 10106 10104 10102 10099 10097 10096 10094 10094 10092 10091 10090 10089 10087 10086 10085 10084 10082 10081 10080 10079 10078 10077
10248 10244 10240 10237 10234 10230 10227 10222 10219 10215 10212 10209 10205 10202 10198 10195 10192 10189 10185 10182 10179 10176 10174 10171 10169 10167 10165 10162 10160 10158 10156 10154 10152 10150 10148 10145 10142 10139 10137 10134 10132 10131 10130 10129 10127 10126 10125 10124 10122 10120 10119 10117 10115 10114 10113 10112 10110 10109 10107 10107 10105 10105 10104 10103 10101 10099 10096 10094 10092 10091 10090 10089 10087 10087 10085 10084 10083 10082 10081 10080 10079 10078 10077 10075 10074 10074
10240 10236 10232 10229 10225 10222 10219 10215 10211 10207 10204 10200 10197 10194 10190 10187 10184 10180 10177 10174 10172 10169 10166 10164 10161 10159 10157 10156 10154 10152 10150 10148 10146 10144 10142 10139 10137 10134 10132 10129 10127 10125 10125 10124 10122 10122 10120 10119 10117 10116 10114 10112 10110 10109 10107 10106 10105 10103 10102 10100 10100 10099 10099 10098 10096 10094 10091 10089 10088 10087 10085 10084 10083 10082 10081 10080 10079 10078 10077 10076 10075 10074 10073 10072 10070 10069
10232 10228 10225 10221 10218 10214 10210 10207 10203 10199 10196 10192 10189 10185 10182 10179 10175 10172 10170 10167 10164 10162 10159 10157 10155 10153 10151 10150 10148 10146 10144 10142 10140 10138 10136 10134 10131 10129 10127 10124 10122 10121 10120 10119 10118 10117 10116 10115 10113 10112 10110 10107 10105 10103 10102 10100 10099 10098 10097 10095 10094 10094 10093 10092 10090 10089 10087 10085 10084 10082 10081 10080 10079 10078 10077 10076 10075 10074 10073 10072 10071 10070 10069 10068 10067 10065
10224 10220 10217 10214 10210 10207 10203 10199 10195 10192 10188 10184 10180 10177 10174 10171 10168 10165 10162 10160 10157 10155 10153 10150 10149 10147 10145 10144 10142 10140 10139 10137 10135 10133 10130 10129 10126 10124 10122 10120 10118 10117 10115 10114 10113 10112 10111 10110 10109 10107 10105 10103 10100 10099 10096 10095 10094 10093 10092 10090 10089 10087 10087 10086 10085 10084 10082 10081 10080 10079 10077 10076 10075 10074 10073 10072 10071 10070 10069 10068 10067 10066 10065 10064 10063 10062
10217 10213 10209 10205 10202 10199 10195 10191 10187 10184 10180 10177 10173 10170 10167 10164 10161 10158 10155 10153 10150 10149 10147 10144 10142 10140 10139 10138 10137 10135 10134 10132 10130 10127 10125 10124 10121 10119 10117 10115 10114 10112 10110 10109 10108 10107 10107 10106 10105 10103 10101 10099 10096 10094 10091 10090 10089 10089 10087 10086 10084 10082 10082 10081 10080 10079 10078 10077 10075 10074 10073 10072 10071 10070 10069 10068 10067 10066 10065 10064 10064 10062 10061 10060 10059 10058
10209 10205 10202 10198 10194 10190 10187 10184 10180 10176 10173 10169 10166 10163 10160 10157 10154 10152 10149 10147 10144 10142 10140 10139 10137 10135 10133 10132 10131 10130 10129 10127 10125 10122 10120 10119 10116 10115 10113 10111 10109 10108 10107 10105 10104 10103 10102 10102 10100 10099 10097 10094 10092 10089 10087 10085 10084 10084 10083 10082 10080 10078 10077 10076 10075 10075 10074 10073 10072 10070 10069 10068 10067 10066 10065 10064 10064 10062 10062 10060 10060 10059 10058 10057 10055 10055
10202 10198 10194 10190 10187 10183 10180 10176 10172 10169 10165 10162 10159 10156 10154 10151 10148 10145 10143 10140 10139 10137 10135 10133 10131 10130 10128 10127 10125 10125 10123 10122 10120 10118 10116 10114 10112 10110 10108 10107 10105 10104 10102 10101 10100 10099 10098 10097 10096 10094 10092 10089 10087 10085 10083 10082 10080 10079 10079 10077 10075 10074 10073 10072 10071 10070 10070 10069 10068 10067 10065 10065 10064 10062 10062 10060 10060 10059 10058 10057 10056 10055 10054 10053 10052 10051
10195 10191 10187 10184 10180 10176 10172 10169 10165 10162 10159 10156 10153 10150 10147 10145 10142 10140 10137 10135 10133 10131 10129 10127 10126 10124 10123 10122 10121 10120 10118 10117 10115 10114 10112 10110 10108 10106 10104 10102 10100 10099 10098 10097 10095 10095 10094 10092 10091 10090 10087 10085 10082 10080 10079 10078 10077 10075 10074 10073 10072 10070 10069 10068 10067 10067 10065 10065 10064 10063 10062 10061 10060 10059 10058 10057 10056 10055 10054 10054 10053 10052 10051 10050 10049 10048
10187 10184 10180 10176 10172 10169 10165 10162 10159 10155 10152 10150 10147 10144 10142 10139 10137 10134 10132 10130 10128 10126 10124 10123 10121 10120 10118 10117 10116 10115 10114 10112 10111 10110 10108 10106 10104 10102 10100 10099 10097 10095 10094 10092 10091 10090 10090 10089 10087 10085 10083 10080 10078 10076 10075 10074 10073 10071 10070 10069 10068 10067 10066 10065 10064 10063 10062 10062 10060 10060 10059 10058 10057 10056 10055 10054 10053 10052 10051 10050 10049 10049 10047 10047 10045 10045
10180 10177 10173 10169 10165 10162 10159 10155 10152 10149 10147 10144 10141 10139 10136 10134 10132 10129 10127 10125 10123 10121 10119 10118 10117 10115 10114 10112 10112 10110 10109 10107 10107 10105 10104 10102 10100 10099 10097 10095 10093 10091 10090 10089 10087 10086 10085 10084 10083 10081 10079 10076 10074 10072 10072 10070 10069 10068 10067 10065 10065 10064 10063 10062 10060 10060 10059 10058 10057 10056 10055 10055 10054 10053 10052 10051 10050 10049 10047 10047 10045 10045 10044 10043 10042 10041
10174 10170 10166 10162 10159 10155 10152 10149 10146 10144 10140 10139 10136 10134 10131 10129 10127 10124 10122 10120 10119 10117 10115 10114 10112 10110 10109 10109 10107 10106 10104 10103 10102 10100 10099 10098 10097 10095 10093 10091 10089 10087 10086 10085 10084 10082 10081 10080 10079 10077 10074 10072 10070 10069 10068 10067 10065 10064 10063 10062 10061 10060 10060 10059 10058 10057 10056 10055 10054 10053 10052 10052 10051 10050 10049 10048 10047 10045 10044 10043 10042 10041 10040 10040 10039 10038
10167 10163 10160 10156 10153 10149 10146 10144 10140 10138 10135 10133 10130 10129 10127 10124 10122 10120 10117 10115 10114 10112 10110 10109 10107 10106 10105 10104 10103 10102 10100 10099 10097 10097 10095 10094 10092 10091 10089 10087 10085 10084 10082 10081 10080 10079 10077 10076 10074 10072 10070 10068 10067 10065 10064 10063 10062 10061 10060 10059 10059 10057 10057 10056 10055 10054 10053 10052 10051 10050 10049 10049 10047 10047 10046 10045 10044 10043 10042 10040 10039 10039 10037 10037 10036 10035
10160 10157 10154 10150 10147 10144 10140 10138 10135 10132 10130 10128 10125 10124 10122 10120 10118 10115 10114 10112 10110 10108 10106 10105 10104 10102 10101 10100 10099 10097 10096 10095 10094 10092 10091 10090 10089 10087 10085 10084 10082 10080 10079 10077 10076 10075 10074 10072 10070 10069 10067 10065 10063 10062 10061 10060 10059 10058 10057 10056 10055 10055 10054 10053 10052 10051 10050 10050 10049 10047 10047 10045 10044 10044 10043 10042 10041 10040 10039 10038 10037 10035 10034 10034 10033 10032
10154 10150 10147 10144 10141 10138 10135 10132 10130 10127 10125 10123 10120 10119 10117 10115 10114 10112 10110 10108 10105 10104 10102 10101 10100 10098 10097 10095 10094 10094 10092 10091 10090 10089 10087 10086 10084 10083 10081 10080 10078 10077 10075 10074 10072 10071 10070 10069 10067 10065 10063 10061 10060 10059 10058 10057 10056 10055 10055 10054 10053 10052 10051 10050 10049 10049 10048 10047 10046 10045 10044 10043 10042 10040 10040 10039 10039 10037 10037 10035 10034 10033 10032 10031 10030 10029